sat.trackr.live / text

‹ back to catalog

STARLINK-30986

NORAD 58492 · 2023-186V

PAYLOAD ACTIVE UNKNOWN

§ Identity

Operator
Country
US
Launch date
2023-12-03
Launch site
AFETR
Launch vehicle
Mass (kg)
RCS (m²)

Purposes: comms

External: N2YO · Heavens-Above · Gunter

§ Orbital elements

Epoch: 2026-09-20T02:56:24.607392Z

Period
94.27 min
Inclination
43.0050°
Eccentricity
0.0001673
Mean motion
15.27577675 rev/d
Perigee alt
481.9 km
Apogee alt
484.2 km
Semi-major
6,861.2 km
B*
-1.2396e-5
RAAN
45.4657°
Arg perigee
268.7414°
Mean anomaly
91.3246°
Rev number
15,562

§ Raw data

STARLINK-309861 58492U 23186V   26263.12250703 -.00000603  00000+0 -12396-4 0  99922 58492  43.0050  45.4657 0001673 268.7414  91.3246 15.27577675155628

JSON: /api/v1/satellites/58492 · /tle

For live sub-satellite position, see the globe view (requires WebGL).

§ Visibility from observer

Set your observer location to see the next 7 days of passes ≥ 10°. The values pass through the URL so the page stays shareable.

No JS? Fill the form by hand. The geolocation button needs JavaScript.